This is the latest recevied weather packets stored in our database for station/object G6UYG-13. If no packets are shown the sender has not sent any weather packets the latest 10 day(s).
| Time | Temp. | Humidity | Pressure | Rain* | Wind** | Luminosity | Snow |
|---|---|---|---|---|---|---|---|
| 1777587598 | 12.22° C | 56% | 1018.4 hPa | 0 mm | - | 0 W/m² | - |
| 1777587177 | 12.22° C | 55% | 1018.4 hPa | 0 mm | - | 0 W/m² | - |
| 1777586757 | 12.22° C | 55% | 1018.4 hPa | 0 mm | - | 0 W/m² | - |
| 1777586338 | 12.78° C | 54% | 1018.5 hPa | 0 mm | - | 0 W/m² | - |
| 1777585918 | 13.33° C | 53% | 1018.4 hPa | 0 mm | - | 0 W/m² | - |
| 1777585498 | 13.89° C | 51% | 1018.4 hPa | 0 mm | - | 0 W/m² | - |
| 1777585078 | 13.89° C | 48% | 1018.3 hPa | 0 mm | - | 0 W/m² | - |
| 1777584658 | 13.89° C | 48% | 1018.3 hPa | 0 mm | - | 0 W/m² | - |
| 1777584238 | 13.89° C | 47% | 1018.1 hPa | 0 mm | - | 0 W/m² | - |
| 1777583818 | 14.44° C | 47% | 1018 hPa | 0 mm | - | 0 W/m² | - |
| 1777583398 | 14.44° C | 46% | 1017.9 hPa | 0 mm | - | 0 W/m² | - |
| 1777582978 | 14.44° C | 46% | 1017.9 hPa | 0 mm | - | 0 W/m² | - |
| 1777582558 | 14.44° C | 45% | 1017.9 hPa | 0 mm | - | 0 W/m² | - |
| 1777582138 | 14.44° C | 44% | 1017.8 hPa | 0 mm | - | 0 W/m² | - |
| 1777581718 | 14.44° C | 44% | 1017.8 hPa | 0 mm | - | 0 W/m² | - |
| 1777581298 | 14.44° C | 43% | 1017.9 hPa | 0 mm | - | 0 W/m² | - |
| 1777580878 | 14.44° C | 43% | 1017.8 hPa | 0 mm | - | 0 W/m² | - |
| 1777580458 | 15° C | 42% | 1017.8 hPa | 0 mm | - | 0 W/m² | - |
| 1777580038 | 15° C | 42% | 1017.7 hPa | 0 mm | - | 0 W/m² | - |
| 1777579618 | 15° C | 41% | 1017.7 hPa | 0 mm | - | 0 W/m² | - |
| 1777579198 | 15.56° C | 41% | 1017.6 hPa | 0 mm | - | 0 W/m² | - |
| 1777578778 | 16.11° C | 40% | 1017.7 hPa | 0 mm | - | 0 W/m² | - |
| 1777578358 | 16.11° C | 40% | 1017.5 hPa | 0 mm | - | 0 W/m² | - |
| 1777577938 | 16.67° C | 37% | 1017.4 hPa | 0 mm | - | 0 W/m² | - |
| 1777577518 | 16.67° C | 37% | 1017.4 hPa | 0 mm | - | 0 W/m² | - |
* Rain latest hour (hover to see other rain measurements)
** Current wind speed in m/s (hover to see current wind gust speed)